Location: Unspecified
(0.0000°N, 0.0000°E)
Time: 23:24:02
(UTC+00:00)

deb S5M - Pass Details

Date: 27 June 2024
Orbit: 775 x 867 km, 82.5° (Epoch: 14 July)

Event Time Altitude Azimuth Distance (km) Brightness Sun altitude
Exits shadow 03:27:24 30° 15° (NNE) 1,460 ? -35.3°
Drops below altitude 10° 03:30:09 10° 9° (N) 2,464 ? -34.7°
Sets 03:32:35 0° 8° (N) 3,409 ? -34.1°
